GW7199 Weather Reports


time (UTC)temp
F
wind
direction
speed
knots
gust
knots
rain 1hr
in
rain 24hr
in
rain mn
in
humidity
%
barometer
mb
20260906113526 71 15 1.7 1.7 0.00 0.00 0.00 96 1013.6
20260906113022 70 69 1.7 1.7 0.00 0.00 0.00 95 1013.6
20260906112516 70 80 0.9 0.9 0.00 0.00 0.00 95 1013.6
20260906112013 70 79 2.6 2.6 0.00 0.00 0.00 95 1013.6
20260906111512 70 18 2.6 2.6 0.00 0.00 0.00 95 1013.4
20260906111008 70 34 0.9 0.9 0.00 0.00 0.00 95 1013.4
20260906110502 70 87 0.9 0.9 0.00 0.00 0.00 95 1013.2
20260906110000 70 87 0.0 0.9 0.00 0.00 0.00 95 1013.2
20260906105457 70 83 0.0 0.0 0.00 0.00 0.00 95 1013.5
20260906104953 70 83 0.9 1.7 0.00 0.00 0.00 94 1013.5
20260906104451 71 55 1.7 1.7 0.00 0.00 0.00 95 1013.3
20260906103950 71 35 1.7 2.6 0.00 0.00 0.00 94 1013.2
20260906103449 70 49 1.7 1.7 0.00 0.00 0.00 95 1013.1
20260906102944 70 50 0.9 1.7 0.00 0.00 0.00 95 1013.0
20260906102445 70 68 0.9 1.7 0.00 0.00 0.00 94 1012.8
20260906101944 70 69 0.0 0.9 0.00 0.00 0.00 94 1013.0
20260906101441 70 69 0.9 1.7 0.00 0.00 0.00 94 1013.0
20260906100941 70 47 1.7 1.7 0.00 0.00 0.00 94 1013.0
20260906100436 70 48 0.9 0.9 0.00 0.00 0.00 94 1013.0
20260906095936 70 50 1.7 1.7 0.00 0.00 0.00 94 1012.9
20260906095431 70 55 0.0 0.9 0.00 0.00 0.00 94 1012.7
20260906094926 70 56 0.9 0.9 0.00 0.00 0.00 93 1012.9
20260906094420 71 55 0.0 0.0 0.00 0.00 0.00 93 1012.6
20260906093916 71 55 0.9 1.7 0.00 0.00 0.00 92 1012.5
20260906093413 71 30 0.0 0.0 0.00 0.00 0.00 92 1012.7
20260906092912 71 33 1.7 1.7 0.00 0.00 0.00 92 1012.7
20260906092412 71 14 0.0 0.9 0.00 0.00 0.00 91 1012.5
20260906091908 71 14 0.9 1.7 0.00 0.00 0.00 91 1012.8
20260906091403 71 14 0.9 1.7 0.00 0.00 0.00 91 1012.6
20260906090900 71 14 1.7 1.7 0.00 0.00 0.00 91 1012.6
20260906090359 71 14 1.7 1.7 0.00 0.00 0.00 91 1012.9
20260906085854 71 14 0.9 0.9 0.00 0.00 0.00 91 1012.6
20260906085353 71 14 0.0 0.0 0.00 0.00 0.00 92 1012.7
20260906084848 71 14 1.7 1.7 0.00 0.00 0.00 92 1012.5
20260906084348 71 14 1.7 1.7 0.00 0.00 0.00 92 1012.5
20260906083842 71 14 1.7 1.7 0.00 0.00 0.00 93 1012.4
20260906083338 71 14 0.9 1.7 0.00 0.00 0.00 93 1012.4
20260906082838 71 14 0.0 0.0 0.00 0.00 0.00 93 1012.6
20260906082333 71 14 0.9 0.9 0.00 0.00 0.00 93 1012.5
20260906081829 71 14 1.7 0.9 0.00 0.00 0.00 93 1012.4
20260906081324 71 14 0.0 0.0 0.00 0.00 0.00 91 1012.4
20260906080820 72 14 0.0 0.0 0.00 0.00 0.00 91 1012.4
20260906080316 72 14 0.0 0.0 0.00 0.00 0.00 91 1012.3
20260906075816 72 14 0.0 0.0 0.00 0.00 0.00 90 1012.6
20260906075315 72 14 0.0 0.0 0.00 0.00 0.00 90 1012.2
20260906074811 72 14 0.9 1.7 0.00 0.00 0.00 89 1012.4
20260906074311 73 12 0.0 0.0 0.00 0.00 0.00 88 1012.6
20260906073810 73 12 0.0 0.0 0.00 0.00 0.00 89 1012.5
20260906073305 72 12 0.9 0.9 0.00 0.00 0.00 89 1012.6
20260906072801 73 12 0.0 0.0 0.00 0.00 0.00 87 1012.6
20260906072256 73 13 0.9 0.9 0.00 0.00 0.00 87 1012.6
20260906071752 73 12 0.0 0.0 0.00 0.00 0.00 87 1012.7
20260906071252 73 12 0.0 0.0 0.00 0.00 0.00 87 1012.9
20260906070749 74 12 0.9 0.9 0.00 0.00 0.00 85 1012.6
20260906070244 74 12 0.9 0.9 0.00 0.00 0.00 85 1012.9
20260906065744 74 12 1.7 0.9 0.00 0.00 0.00 85 1012.8
20260906065239 74 90 0.9 0.9 0.00 0.00 0.00 85 1013.0
20260906064735 74 90 0.0 0.0 0.00 0.00 0.00 85 1012.9
20260906064230 75 90 0.0 0.0 0.00 0.00 0.00 83 1012.9
20260906063725 75 90 0.0 0.0 0.00 0.00 0.00 82 1012.9
20260906063221 75 90 1.7 1.7 0.00 0.00 0.00 82 1012.8
20260906062716 75 90 1.7 2.6 0.00 0.00 0.00 82 1013.0
20260906062215 75 81 0.9 0.9 0.00 0.00 0.00 82 1013.0
20260906061711 75 75 0.9 0.9 0.00 0.00 0.00 82 1012.9
20260906061207 75 74 0.9 1.7 0.00 0.00 0.00 82 1013.0
20260906060702 75 83 0.9 2.6 0.00 0.00 0.00 82 1012.8
20260906060159 75 86 2.6 3.5 0.00 0.00 0.00 82 1012.7
20260906055655 74 93 1.7 3.5 0.00 0.00 0.00 83 1012.8
20260906055150 74 69 1.7 2.6 0.00 0.00 0.00 86 1012.8
20260906054645 75 79 0.9 0.9 0.00 0.00 0.00 86 1012.8
20260906054140 75 74 1.7 1.7 0.00 0.00 0.00 85 1012.9
20260906053637 74 87 1.7 1.7 0.00 0.00 0.00 87 1012.9
20260906053137 75 88 0.9 1.7 0.00 0.00 0.00 86 1013.0
20260906052633 75 88 0.9 1.7 0.00 0.00 0.00 86 1013.0
20260906052129 75 89 0.9 0.9 0.00 0.00 0.00 85 1013.2
20260906051626 75 89 0.9 0.9 0.00 0.00 0.00 86 1013.1
20260906051125 75 89 0.0 0.0 0.00 0.00 0.00 86 1013.1
20260906050621 75 89 0.9 0.9 0.00 0.00 0.00 87 1013.2
20260906050116 75 89 0.9 0.9 0.00 0.00 0.00 87 1013.2
20260906045614 75 55 0.9 0.9 0.00 0.00 0.00 89 1013.3
20260906045110 75 55 0.0 0.9 0.00 0.00 0.00 91 1013.5
20260906044606 75 55 0.0 0.0 0.00 0.00 0.00 90 1013.2
20260906044100 75 55 0.0 0.9 0.00 0.00 0.00 90 1013.5
20260906043557 76 55 0.0 0.0 0.00 0.00 0.00 89 1013.3
20260906043052 76 55 0.0 0.9 0.00 0.00 0.00 89 1013.3
20260906042551 76 54 0.9 0.9 0.00 0.00 0.00 90 1013.4
20260906042045 76 55 0.9 0.9 0.00 0.00 0.00 90 1013.2
20260906041542 76 342 0.0 1.7 0.00 0.00 0.00 90 1013.0
20260906041037 76 357 0.0 0.0 0.00 0.00 0.00 88 1013.5
20260906040532 76 357 0.9 0.9 0.00 0.00 0.00 89 1013.3
20260906040028 76 59 0.9 0.9 0.00 0.00 0.00 89 1013.2
20260906035522 76 41 1.7 1.7 0.00 0.00 0.00 92 1013.2
20260906035019 76 291 2.6 3.5 0.00 0.00 0.00 91 1013.1
20260906034518 76 74 0.0 0.9 0.00 0.00 0.00 92 1012.7
20260906034013 76 75 0.9 1.7 0.00 0.00 0.00 92 1012.6
20260906033508 76 70 0.9 1.7 0.00 0.00 0.00 92 1012.8
20260906033004 76 41 1.7 1.7 0.00 0.00 0.00 93 1012.4
20260906032500 76 93 0.0 0.0 0.00 0.00 0.00 93 1012.4
20260906031959 76 93 0.0 0.0 0.00 0.00 0.00 94 1012.2
20260906031456 75 93 0.0 0.0 0.00 0.00 0.00 94 1012.2
20260906030951 75 93 0.0 0.0 0.00 0.00 0.00 94 1012.2
20260906030445 75 75 1.7 2.6 0.00 0.00 0.00 93 1012.5
20260906025940 76 332 0.0 0.0 0.00 0.00 0.00 93 1012.3
20260906025439 76 332 0.0 0.0 0.00 0.00 0.00 92 1012.4
20260906024938 76 332 0.0 0.0 0.00 0.00 0.00 92 1012.4
20260906024439 76 332 0.0 0.0 0.00 0.00 0.00 91 1012.5
20260906023938 76 332 0.0 0.0 0.00 0.00 0.00 91 1012.5
20260906023435 76 331 0.0 0.0 0.00 0.00 0.00 91 1012.9
20260906022935 76 331 0.0 0.0 0.00 0.00 0.00 91 1012.3
20260906022431 77 332 0.0 0.0 0.00 0.00 0.00 90 1012.6
20260906021926 76 332 0.0 0.0 0.00 0.00 0.00 91 1012.4
20260906021426 76 331 0.0 0.0 0.00 0.00 0.00 91 1012.4
20260906020926 77 332 0.0 0.0 0.00 0.00 0.00 88 1012.0
20260906020420 78 332 0.0 0.0 0.00 0.00 0.00 86 1012.0
20260906015915 78 332 0.0 0.0 0.00 0.00 0.00 87 1012.3
20260906015415 78 332 0.0 0.0 0.00 0.00 0.00 87 1012.2
20260906014914 78 332 0.0 0.0 0.00 0.00 0.00 87 1012.2
20260906014414 79 332 0.0 0.0 0.00 0.00 0.00 86 1011.9
20260906013911 79 332 0.0 0.0 0.00 0.00 0.00 87 1012.3
20260906013406 79 332 0.0 0.0 0.00 0.00 0.00 86 1012.0
20260906012902 0 0.0 0.0 0.00 0.00 0.00 1012.3
20260906012356 0 0.0 0.0 0.00 0.00 0.00 1011.7
20260906011856 81 332 0.0 0.0 0.00 0.00 0.00 78 1011.6
20260906011351 81 332 0.0 0.0 0.00 0.00 0.00 78 1011.9
20260906010846 81 332 0.0 0.0 0.00 0.00 0.00 78 1011.6
20260906010342 81 332 0.0 0.0 0.00 0.00 0.00 78 1011.7
20260906005838 81 332 0.0 0.0 0.00 0.00 0.00 79 1011.5
20260906005337 81 308 0.0 1.7 0.00 0.00 0.00 80 1011.7
20260906004836 80 339 0.9 2.6 0.00 0.00 0.00 82 1011.5
20260906004336 81 296 0.9 0.9 0.00 0.00 0.00 82 1011.4
20260906003831 82 296 0.0 0.9 0.00 0.00 0.00 79 1011.4
20260906003326 82 296 0.9 0.9 0.00 0.00 0.00 82 1011.5
20260906002822 82 296 0.9 0.9 0.00 0.00 0.00 82 1011.4
20260906002321 82 296 1.7 1.7 0.00 0.00 0.00 82 1011.5
20260906001817 82 69 0.0 0.0 0.00 0.00 0.00 80 1011.8
20260906001312 82 69 0.0 0.0 0.00 0.00 0.00 80 1011.9
20260906000807 82 69 0.0 0.0 0.00 0.00 0.00 78 1012.2
20260906000303 0 0.0 0.0 0.00 0.00 0.00 1012.0
20260905235756 0 0.0 0.0 0.00 0.00 0.00 1012.2
20260905235256 84 69 0.0 0.0 0.00 0.00 0.00 77 1012.4
20260905234752 84 69 0.0 0.0 0.00 0.00 0.00 77 1012.0
20260905234247 84 69 0.0 0.0 0.00 0.00 0.00 78 1012.3
20260905233742 85 69 0.0 0.0 0.00 0.00 0.00 77 1012.5
20260905233242 85 69 0.0 0.0 0.00 0.00 0.00 76 1012.2
20260905232736 86 69 0.0 0.0 0.00 0.00 0.00 75 1012.2
20260905232232 86 69 0.0 0.0 0.00 0.00 0.00 75 1011.9
20260905231727 0 0.0 0.0 0.00 0.00 0.00 1012.2
20260905231223 88 68 0.0 0.0 0.00 0.00 0.00 66 1012.4
20260905230719 88 68 0.0 0.0 0.00 0.00 0.00 66 1012.4
20260905230216 88 68 0.0 0.0 0.00 0.00 0.00 66 1012.3
20260905225716 89 68 0.0 0.0 0.00 0.00 0.00 63 1012.0
20260905225211 89 68 0.0 0.0 0.00 0.00 0.00 60 1012.2
20260905224710 89 68 0.0 0.0 0.00 0.00 0.00 61 1011.9
20260905224206 89 68 0.0 0.0 0.00 0.00 0.00 60 1011.9
20260905223702 0 0.0 0.0 0.00 0.00 0.00 1012.2
20260905223158 0 0.0 0.0 0.00 0.00 0.00 1012.0
20260905222654 91 19 0.9 0.9 0.00 0.00 0.00 55 1011.9
20260905222154 91 19 0.9 0.9 0.00 0.00 0.00 55 1011.8
20260905221649 0 0.0 0.0 0.00 0.00 0.00 1012.2
20260905221146 0 0.0 0.0 0.00 0.00 0.00 1012.0
20260905220647 0 0.0 0.0 0.00 0.00 0.00 1011.8
20260905220143 0 0.0 0.0 0.00 0.00 0.00 1012.0
20260905215642 91 2 0.9 0.9 0.00 0.00 0.00 54 1011.9
20260905215138 91 2 0.9 0.9 0.00 0.00 0.00 54 1012.0
20260905214634 91 333 0.9 0.9 0.00 0.00 0.00 55 1012.0
20260905214129 92 23 2.6 2.6 0.00 0.00 0.00 54 1011.7
20260905213624 92 321 0.0 0.0 0.00 0.00 0.00 52 1011.9
20260905213119 92 321 1.7 1.7 0.00 0.00 0.00 52 1011.9
20260905212615 92 16 1.7 1.7 0.00 0.00 0.00 51 1012.0
20260905212114 92 334 1.7 2.6 0.00 0.00 0.00 51 1011.8
20260905211609 92 334 1.7 2.6 0.00 0.00 0.00 51 1012.0
20260905211105 0 0.0 0.0 0.00 0.00 0.00 1011.7
20260905210601 0 0.0 0.0 0.00 0.00 0.00 1012.2
20260905210055 93 29 2.6 2.6 0.00 0.00 0.00 50 1012.2
20260905205555 93 29 2.6 2.6 0.00 0.00 0.00 50 1012.2
20260905205054 93 66 1.7 2.6 0.00 0.00 0.00 51 1012.2
20260905204549 94 32 0.9 0.9 0.00 0.00 0.00 48 1012.2
20260905204044 95 312 0.9 1.7 0.00 0.00 0.00 48 1012.0
20260905203544 94 332 0.0 0.0 0.00 0.00 0.00 48 1012.3
20260905203039 94 329 2.6 2.6 0.00 0.00 0.00 48 1012.2
20260905202535 94 19 0.9 1.7 0.00 0.00 0.00 48 1012.5
20260905202030 94 353 1.7 1.7 0.00 0.00 0.00 49 1012.4
20260905201526 94 19 1.7 1.7 0.00 0.00 0.00 47 1012.8
20260905201025 96 27 0.0 0.0 0.00 0.00 0.00 47 1012.7
20260905200521 96 27 0.9 0.9 0.00 0.00 0.00 48 1012.7
20260905200021 96 299 1.7 1.7 0.00 0.00 0.00 46 1012.8
20260905195520 96 241 0.0 0.9 0.00 0.00 0.00 49 1012.7
20260905195016 95 315 1.7 1.7 0.00 0.00 0.00 46 1012.8
20260905194516 96 4 0.9 0.9 0.00 0.00 0.00 45 1013.0
20260905194015 96 250 0.0 0.0 0.00 0.00 0.00 49 1013.0
20260905193510 96 279 0.9 0.9 0.00 0.00 0.00 50 1013.0
20260905193005 95 80 0.9 1.7 0.00 0.00 0.00 45 1013.1
20260905192500 94 31 0.9 1.7 0.00 0.00 0.00 50 1013.2
20260905191956 95 47 0.9 1.7 0.00 0.00 0.00 48 1013.5
20260905191455 96 274 0.0 0.9 0.00 0.00 0.00 47 1013.2
20260905190954 94 63 0.0 0.9 0.00 0.00 0.00 49 1013.1
20260905190452 93 36 1.7 1.7 0.00 0.00 0.00 47 1013.3
20260905185951 95 326 2.6 2.6 0.00 0.00 0.00 47 1013.3
20260905185447 94 296 0.9 1.7 0.00 0.00 0.00 46 1013.5
20260905184945 96 331 0.9 3.5 0.00 0.00 0.00 44 1013.6
20260905184440 96 265 0.9 2.6 0.00 0.00 0.00 52 1013.5
20260905183938 96 298 1.7 2.6 0.00 0.00 0.00 44 1013.7
20260905183433 96 218 1.7 3.5 0.00 0.00 0.00 47 1013.5
20260905182929 95 153 1.7 3.5 0.00 0.00 0.00 51 1013.8
20260905182427 96 180 1.7 3.5 0.00 0.00 0.00 50 1014.0
20260905181923 96 202 0.0 0.9 0.00 0.00 0.00 44 1013.9
20260905181418 95 184 0.9 2.6 0.00 0.00 0.00 50 1014.0
20260905180917 95 186 2.6 3.5 0.00 0.00 0.00 48 1014.0
20260905180412 95 250 1.7 2.6 0.00 0.00 0.00 47 1014.0
20260905175912 94 148 0.0 0.9 0.00 0.00 0.00 44 1014.2
20260905175412 94 172 1.7 3.5 0.00 0.00 0.00 49 1014.1
20260905174907 94 186 1.7 2.6 0.00 0.00 0.00 53 1014.3
20260905174403 93 227 0.9 2.6 0.00 0.00 0.00 54 1014.2
20260905173858 93 146 2.6 3.5 0.00 0.00 0.00 47 1014.1
20260905173354 93 176 0.9 3.5 0.00 0.00 0.00 50 1014.2
20260905172849 93 221 1.7 3.5 0.00 0.00 0.00 50 1014.3
20260905172347 93 178 1.7 1.7 0.00 0.00 0.00 51 1014.5
20260905171843 91 277 1.7 2.6 0.00 0.00 0.00 52 1014.5
20260905171340 91 121 1.7 5.2 0.00 0.00 0.00 52 1014.5
20260905170836 91 156 1.7 2.6 0.00 0.00 0.00 52 1014.4
20260905170332 91 115 3.5 3.5 0.00 0.00 0.00 51 1014.9
20260905165831 91 181 0.9 1.7 0.00 0.00 0.00 47 1014.6
20260905165327 91 271 1.7 6.1 0.00 0.00 0.00 51 1014.7
20260905164826 91 125 1.7 1.7 0.00 0.00 0.00 49 1014.7
20260905164321 90 247 0.9 2.6 0.00 0.00 0.00 54 1014.9
20260905163817 91 136 1.7 2.6 0.00 0.00 0.00 51 1015.0
20260905163313 91 254 0.9 3.5 0.00 0.00 0.00 55 1014.8
20260905162809 90 232 2.6 3.5 0.00 0.00 0.00 59 1014.8
20260905162309 90 242 1.7 5.2 0.00 0.00 0.00 55 1014.7
20260905161803 90 157 1.7 3.5 0.00 0.00 0.00 54 1015.0
20260905161302 90 223 1.7 2.6 0.00 0.00 0.00 57 1014.8
20260905160801 89 162 1.7 2.6 0.00 0.00 0.00 57 1014.8
20260905160301 89 172 3.5 5.2 0.00 0.00 0.00 58 1014.7
20260905155756 88 201 1.7 2.6 0.00 0.00 0.00 58 1014.9
20260905155254 89 207 3.5 3.5 0.00 0.00 0.00 56 1015.1
20260905154749 88 152 1.7 2.6 0.00 0.00 0.00 57 1015.1
20260905154245 88 167 0.9 3.5 0.00 0.00 0.00 55 1015.2
20260905153740 87 184 1.7 5.2 0.00 0.00 0.00 59 1015.3
20260905153236 87 160 0.9 3.5 0.00 0.00 0.00 59 1015.5
20260905152731 86 139 1.7 2.6 0.00 0.00 0.00 61 1015.4
20260905152230 86 161 1.7 6.1 0.00 0.00 0.00 58 1015.5
20260905151730 86 138 3.5 5.2 0.00 0.00 0.00 60 1015.4
20260905151227 86 121 1.7 2.6 0.00 0.00 0.00 59 1015.5
20260905150726 85 156 2.6 2.6 0.00 0.00 0.00 61 1015.6
20260905150226 83 148 0.9 2.6 0.00 0.00 0.00 63 1015.4
20260905145723 82 129 3.5 3.5 0.00 0.00 0.00 66 1015.7
20260905145218 80 101 0.9 2.6 0.00 0.00 0.00 70 1015.5
20260905144717 80 115 3.5 5.2 0.00 0.00 0.00 68 1015.6
20260905144212 80 141 2.6 3.5 0.00 0.00 0.00 68 1015.6
20260905143711 81 133 0.9 3.5 0.00 0.00 0.00 70 1015.8
20260905143206 83 129 3.5 5.2 0.00 0.00 0.00 67 1015.7
20260905142704 83 112 1.7 9.6 0.00 0.00 0.00 68 1015.9
20260905142205 82 92 1.7 5.2 0.00 0.00 0.00 70 1016.1
20260905141700 81 177 1.7 2.6 0.00 0.00 0.00 72 1015.8
20260905141156 80 118 2.6 3.5 0.00 0.00 0.00 72 1015.8
20260905140651 79 102 2.6 2.6 0.00 0.00 0.00 75 1015.8
20260905140151 79 63 1.7 5.2 0.00 0.00 0.00 75 1016.0
20260905135646 78 126 4.3 6.1 0.00 0.00 0.00 76 1015.8
20260905135141 77 100 2.6 2.6 0.00 0.00 0.00 79 1015.8
20260905134636 77 70 1.7 2.6 0.00 0.00 0.00 78 1015.8
20260905134134 76 69 4.3 7.0 0.00 0.00 0.00 79 1015.8
20260905133630 75 76 3.5 5.2 0.00 0.00 0.00 81 1016.1
20260905133130 74 11 2.6 5.2 0.00 0.00 0.00 81 1016.2
20260905132630 73 50 3.5 6.1 0.00 0.00 0.00 83 1016.2
20260905132125 73 66 3.5 9.6 0.00 0.00 0.00 83 1016.2
20260905131620 73 28 6.1 8.7 0.00 0.00 0.00 83 1016.0
20260905131115 73 91 4.3 6.1 0.00 0.00 0.00 84 1015.9
20260905130615 73 65 5.2 7.8 0.00 0.00 0.00 83 1016.2
20260905130114 74 70 4.3 6.1 0.00 0.00 0.00 83 1016.1
20260905125609 74 88 4.3 6.1 0.00 0.00 0.00 82 1015.9
20260905125104 74 48 6.1 7.8 0.00 0.00 0.00 82 1015.8
20260905124601 74 43 4.3 7.8 0.00 0.00 0.00 82 1016.1
20260905124057 74 38 2.6 7.0 0.00 0.00 0.00 82 1016.2
20260905123551 74 26 1.7 2.6 0.00 0.00 0.00 82 1015.8
20260905123049 74 57 1.7 1.7 0.00 0.00 0.00 83 1015.5
20260905122548 74 86 1.7 2.6 0.00 0.00 0.00 83 1015.4
20260905122043 74 88 1.7 2.6 0.00 0.00 0.00 82 1015.4
20260905121544 74 59 1.7 2.6 0.00 0.00 0.00 82 1015.5
20260905121039 74 76 3.5 6.1 0.00 0.00 0.00 82 1015.5
20260905120538 74 90 2.6 6.1 0.00 0.00 0.00 82 1015.4
20260905120033 74 81 2.6 6.1 0.00 0.00 0.00 82 1015.4
20260905115532 74 68 2.6 3.5 0.00 0.00 0.00 82 1015.4
20260905115027 74 64 4.3 6.1 0.00 0.00 0.00 83 1015.1
20260905114526 75 64 1.7 5.2 0.00 0.00 0.00 83 1015.1
20260905114026 75 73 3.5 5.2 0.00 0.00 0.00 83 1015.1